INTELSAT 17 (IS-17)

Last updated on Sat Apr 13 2024 01:02:37 GMT+0100 (British Summer Time)

1 37238U 10065B 24103.58768132 -.00000010 00000+0 00000+0 0 9995 2 37238 0.0179 239.0549 0002618 156.4821 83.2956 1.00270840 45260
UTC large
Height (km)
Speed (km/s)
/
Latitude / Longitude
Inclination (degrees)
Orbital Period (minutes)
Azimuth
Elevation
Range (km)
Doppler Factor

Next 0 passes for location: London (51.5072 / 0.1276)

Sorry there are no passes over London.